Weather History for KCMD - October, 2013

Change the Weather History Date:

Friday, October 11, 2013

  Actual Average Record
Temperature  
Mean Temperature 66 °F -  
Max Temperature 80 °F - - ()
Min Temperature 53 °F - - ()
Cooling Degree Days 2    
Growing Degree Days 16 (Base 50)    
Moisture  
Dew Point 56 °F    
Average Humidity 77    
Maximum Humidity 99    
Minimum Humidity 40    
Precipitation  
Precipitation 0.00 in - - ()
Sea Level Pressure  
Sea Level Pressure 30.08 in    
Wind  
Wind Speed 1 mph (NW)    
Max Wind Speed 8 mph    
Max Gust Speed -    
Visibility 9 miles    
Events      
Averages and records for this station are not official NWS values.
T = Trace of Precipitation, MM = Missing Value Source: NWS Daily Summary

Daily Weather History Graph

Daily Weather History Graph

Search for Another Location

Airport or City:

Trip Planner

Search our weather history database for the weather conditions in past years. The results will help you decide how hot, cold, wet, or windy it might be!

Date:

Astronomy

Oct. 11, 2013 Rise Set
Actual Time 6:49 AM CDT 6:17 PM CDT
Civil Twilight 6:24 AM CDT 6:43 PM CDT
Nautical Twilight 5:55 AM CDT 7:12 PM CDT
Astronomical Twilight 5:26 AM CDT 7:41 PM CDT
Moon 1:23 PM CDT (10/11) No Moon Set
Length of Visible Light 12h 18m
Length of Day
11h 28m
Waxing Crescent, 47% of the Moon is Illuminated
Oct 11
Waxing Crescent
Oct 11
First Quarter
Oct 18
Full
Oct 26
Last Quarter
Nov 3
New

Hourly Weather History & Observations

Time (CDT) Temp. Heat Index Dew Point Humidity Pressure Visibility Wind Dir Wind Speed Gust Speed Precip Events Conditions
12:15 AM 56.5 °F - 56.1 °F 99% 30.06 in 4.0 mi Calm Calm - N/A   Clear
12:35 AM 56.1 °F - 55.9 °F 99% 30.06 in 10.0 mi Calm Calm - N/A   Clear
12:55 AM 55.6 °F - 55.2 °F 99% 30.06 in 10.0 mi Calm Calm - N/A   Clear
1:15 AM 55.2 °F - 54.9 °F 99% 30.07 in 10.0 mi Calm Calm - N/A   Clear
1:55 AM 54.9 °F - 54.3 °F 98% 30.07 in 10.0 mi NNE 3.5 mph - N/A   Clear
2:15 AM 54.3 °F - 54.0 °F 99% 30.07 in 7.0 mi Calm Calm - N/A   Clear
2:35 AM 54.1 °F - 53.6 °F 98% 30.07 in 7.0 mi Calm Calm - N/A   Clear
2:55 AM 54.3 °F - 54.0 °F 99% 30.07 in 10.0 mi Calm Calm - N/A   Clear
3:15 AM 54.0 °F - 53.8 °F 99% 30.07 in 5.0 mi Calm Calm - N/A   Clear
3:35 AM 53.6 °F - 53.2 °F 99% 30.06 in 4.0 mi Calm Calm - N/A   Clear
3:55 AM 54.1 °F - 54.0 °F 99% 30.07 in 10.0 mi Calm Calm - N/A   Clear
4:15 AM 54.5 °F - 54.1 °F 99% 30.07 in 10.0 mi Calm Calm - N/A   Clear
4:35 AM 54.1 °F - 54.0 °F 99% 30.07 in 10.0 mi Calm Calm - N/A   Clear
4:55 AM 54.1 °F - 53.8 °F 99% 30.07 in 10.0 mi Calm Calm - N/A   Clear
5:15 AM 54.1 °F - 53.8 °F 99% 30.08 in 10.0 mi Calm Calm - N/A   Clear
5:35 AM 54.3 °F - 53.8 °F 98% 30.08 in 4.0 mi Calm Calm - N/A   Clear
5:55 AM 53.8 °F - 53.4 °F 99% 30.09 in 7.0 mi Calm Calm - N/A   Scattered Clouds
6:15 AM 53.8 °F - 53.1 °F 97% 30.09 in 10.0 mi Calm Calm - N/A   Scattered Clouds
6:35 AM 54.0 °F - 53.4 °F 98% 30.09 in 10.0 mi Calm Calm - N/A   Scattered Clouds
6:55 AM 53.2 °F - 52.7 °F 98% 30.09 in 10.0 mi Calm Calm - N/A   Clear
7:15 AM 53.2 °F - 52.9 °F 99% 30.10 in 3.0 mi Calm Calm - N/A   Scattered Clouds
7:35 AM 54.0 °F - 53.4 °F 98% 30.10 in 7.0 mi Calm Calm - N/A   Clear
7:55 AM 55.9 °F - 55.2 °F 97% 30.11 in 10.0 mi Calm Calm - N/A   Scattered Clouds
8:15 AM 58.6 °F - 56.8 °F 94% 30.11 in 10.0 mi Calm Calm - N/A   Clear
8:35 AM 62.1 °F - 58.3 °F 87% 30.12 in 10.0 mi Calm Calm - N/A   Clear
8:55 AM 64.9 °F - 59.2 °F 82% 30.12 in 10.0 mi Calm Calm - N/A   Clear
9:15 AM 67.1 °F - 59.5 °F 77% 30.12 in 10.0 mi Calm Calm - N/A   Clear
9:35 AM 69.3 °F - 59.5 °F 71% 30.12 in 10.0 mi Calm Calm - N/A   Clear
9:55 AM 70.5 °F - 59.5 °F 68% 30.12 in 10.0 mi Calm Calm - N/A   Clear
10:15 AM 72.9 °F - 59.4 °F 62% 30.12 in 10.0 mi Calm Calm - N/A   Clear
10:35 AM 74.3 °F - 59.7 °F 60% 30.12 in 10.0 mi Calm Calm - N/A   Clear
10:55 AM 74.1 °F - 59.2 °F 59% 30.12 in 10.0 mi NW 3.5 mph - N/A   Clear
11:15 AM 75.6 °F - 58.5 °F 55% 30.12 in 10.0 mi NNW 6.9 mph - N/A   Clear
11:35 AM 77.4 °F - 56.5 °F 48% 30.12 in 10.0 mi West 8.1 mph - N/A   Clear
11:55 AM 78.3 °F - 55.4 °F 45% 30.11 in 10.0 mi West 5.8 mph - N/A   Scattered Clouds
12:15 PM 77.2 °F - 56.5 °F 49% 30.11 in 10.0 mi West 4.6 mph - N/A   Clear
12:35 PM 78.3 °F - 55.2 °F 45% 30.11 in 10.0 mi Calm Calm - N/A   Scattered Clouds
12:55 PM 78.4 °F - 55.2 °F 45% 30.10 in 10.0 mi WNW 5.8 mph - N/A   Scattered Clouds
1:15 PM 78.8 °F - 54.1 °F 42% 30.08 in 10.0 mi North 5.8 mph - N/A   Clear
1:35 PM 77.9 °F - 54.1 °F 44% 30.08 in 10.0 mi North 6.9 mph - N/A   Clear
1:55 PM 79.5 °F - 54.0 °F 41% 30.07 in 10.0 mi West 5.8 mph - N/A   Clear
2:15 PM 79.9 °F - 53.8 °F 40% 30.06 in 10.0 mi North 3.5 mph - N/A   Scattered Clouds
2:35 PM 80.2 °F 80.1 °F 54.0 °F 40% 30.06 in 10.0 mi West 5.8 mph - N/A   Scattered Clouds
2:55 PM 80.1 °F 80.1 °F 55.0 °F 42% 30.06 in 10.0 mi NNW 4.6 mph - N/A   Clear
3:15 PM 79.5 °F - 55.8 °F 44% 30.06 in 10.0 mi NNW 3.5 mph - N/A   Clear
3:35 PM 78.3 °F - 55.6 °F 45% 30.06 in 10.0 mi WNW 6.9 mph - N/A   Scattered Clouds
3:55 PM 79.5 °F - 55.0 °F 43% 30.05 in 10.0 mi NW 3.5 mph - N/A   Scattered Clouds
4:15 PM 78.1 °F - 55.0 °F 45% 30.05 in 10.0 mi Calm Calm - N/A   Clear
4:35 PM 78.8 °F - 55.2 °F 44% 30.05 in 10.0 mi North 3.5 mph - N/A   Clear
4:55 PM 78.3 °F - 55.8 °F 46% 30.05 in 10.0 mi North 4.6 mph - N/A   Scattered Clouds
5:15 PM 77.5 °F - 54.9 °F 45% 30.05 in 10.0 mi Calm Calm - N/A   Scattered Clouds
5:35 PM 76.6 °F - 55.6 °F 48% 30.05 in 10.0 mi Calm Calm - N/A   Clear
5:55 PM 74.8 °F - 56.7 °F 53% 30.05 in 10.0 mi Calm Calm - N/A   Clear
6:15 PM 71.1 °F - 58.1 °F 63% 30.05 in 10.0 mi Calm Calm - N/A   Clear
6:35 PM 67.8 °F - 57.7 °F 70% 30.05 in 10.0 mi Calm Calm - N/A   Clear
6:55 PM 64.6 °F - 57.2 °F 77% 30.05 in 10.0 mi Calm Calm - N/A   Clear
7:15 PM 63.1 °F - 57.0 °F 80% 30.06 in 10.0 mi Calm Calm - N/A   Clear
7:35 PM 61.5 °F - 56.7 °F 84% 30.06 in 10.0 mi Calm Calm - N/A   Clear
7:55 PM 60.3 °F - 57.0 °F 89% 30.06 in 10.0 mi Calm Calm - N/A   Clear
8:15 PM 59.5 °F - 57.2 °F 92% 30.06 in 10.0 mi Calm Calm - N/A   Clear
8:35 PM 58.8 °F - 57.0 °F 94% 30.06 in 10.0 mi Calm Calm - N/A   Clear
8:55 PM 58.3 °F - 56.8 °F 95% 30.06 in 10.0 mi Calm Calm - N/A   Clear
9:15 PM 57.7 °F - 56.5 °F 96% 30.06 in 10.0 mi Calm Calm - N/A   Clear
9:35 PM 57.2 °F - 56.1 °F 96% 30.06 in 10.0 mi Calm Calm - N/A   Clear
9:55 PM 56.5 °F - 55.6 °F 97% 30.06 in 10.0 mi Calm Calm - N/A   Clear
10:15 PM 56.1 °F - 55.4 °F 97% 30.06 in 7.0 mi Calm Calm - N/A   Clear
10:35 PM 55.6 °F - 54.9 °F 97% 30.07 in 7.0 mi Calm Calm - N/A   Clear
10:55 PM 55.4 °F - 55.0 °F 99% 30.06 in 7.0 mi Calm Calm - N/A   Clear
11:15 PM 55.4 °F - 54.9 °F 98% 30.06 in 7.0 mi Calm Calm - N/A   Clear
11:35 PM 54.5 °F - 54.1 °F 99% 30.06 in 7.0 mi Calm Calm - N/A   Clear
11:55 PM 54.5 °F - 53.8 °F 97% 30.06 in 7.0 mi Calm Calm - N/A   Clear